Voltar ao catálogo

FREGAT DEB

LostUNKNOWN
NORAD 46405·DEBRIS·🇷🇺 Russia

Lançado Jul 18, 2011 de Baikonur Cosmodrome

Loading…

Próximas Passagens (próximas 24 horas)

TLE

ObsoletoSource: Space-Track

Época: Sep 8, 2020, 07:50 UTC

1 46405U 11037LL  20252.32707846 -.00042982  00000-0 -11845+0 0  9994
2 46405  51.0711 112.9247 1024043 268.2687  79.6063 11.97011864  3490

Acompanhe FREGAT DEB em tempo real com AllMySat

Download on the App Store